Location: Centocelle
(41.8833°N, 12.5667°E)
Time: 00:30:41
(UTC+00:00)

Daily predictions for brighter satellites

Satellite Brightness Start Highest point End
(mag) Time Altitude Azimuth Time Altitude Azimuth Time Altitude Azimuth
MSX 4.4 02:51:33 10° NNE 02:56:46 55° E 02:56:46 55° E
Cosmos 1697 Rocket 3.3 03:03:20 53° ENE 03:03:20 53° ENE 03:08:40 10° SE
Meteor 1-11 4.3 03:15:39 74° ESE 03:15:49 75° E 03:21:36 10° NNE
Cosmos 839 Rocket 4.4 03:18:30 24° SSW 03:23:12 69° ESE 03:29:33 10° NE
Cosmos 1934 Rocket 3.9 03:22:28 67° SSW 03:23:23 85° W 03:29:47 10° N
Cosmos 2082 Rocket 2.4 03:22:45 52° S 03:24:03 70° ESE 03:29:46 10° NNE
Cosmos 923 Rocket 4.4 03:27:45 42° N 03:29:19 60° ENE 03:34:29 10° SSE
CZ-4C R/B 4.1 03:40:02 17° NNW 03:40:02 17° NNW 03:42:57 10° NNE
Cosmos 1833 Rocket 2.8 03:46:04 52° NW 03:46:04 52° NW 03:50:59 10° NNE
Cosmos 1898 Rocket 4.2 03:45:38 10° S 03:50:41 53° ESE 03:55:48 10° NNE
Cosmos 1076 Rocket 3.6 03:48:33 10° S 03:52:54 77° E 03:57:15 10° N
Cosmos 2058 3.5 03:50:11 10° S 03:54:19 58° E 03:58:27 10° NNE
Cosmos 2123 Rocket 4.0 03:48:29 10° NNW 03:54:29 54° W 04:00:29 10° SSW
Lacrosse 5 1.8 03:56:32 58° WNW 03:57:00 61° NW 04:02:03 10° NE
SL-16 R/B 4.1 03:52:31 10° N 03:57:17 27° NE 04:02:01 10° ESE
ASTEX 1 3.3 03:53:38 10° S 03:58:34 88° W 04:03:34 10° N
CZ-2C R/B 2.3 03:54:53 10° N 03:59:45 63° WNW 04:01:55 31° SW
ATLAS 2AS CENTAUR R/B 4.2 03:53:49 10° NNW 04:00:45 34° NE 04:07:12 10° ESE
ISS -1.7 04:02:38 19° S 04:02:38 19° S 04:03:59 10° SSE
CZ-4B R/B 3.8 04:00:11 10° N 04:02:10 31° N 04:02:10 31° N
Cosmos 1937 Rocket 4.3 03:59:51 10° S 04:04:49 50° ESE 04:09:47 10° NNE
BREEZE-M DEB (TANK) 3.1 04:05:06 44° N 04:05:09 44° N 04:07:46 10° ENE
Cosmos 1980 Rocket 2.1 04:02:33 20° NNW 04:06:40 88° WSW 04:12:21 10° SSE
Cosmos 1605 Rocket 3.9 04:00:39 10° SSW 04:06:47 60° W 04:12:52 10° N
Cosmos 2221 3.1 04:09:03 39° SW 04:09:03 39° SW 04:12:16 10° SSW
Cosmos 2322 Rocket 4.0 04:03:47 10° N 04:08:37 28° NE 04:13:25 10° ESE
STARLINK-43 3.2 04:10:20 64° SW 04:10:52 89° NW 04:14:37 10° NE
Cosmos 1356 Rocket 3.4 04:08:04 12° N 04:12:07 89° E 04:16:25 10° S
SL-4 R/B 3.9 04:17:16 21° NNW 04:19:08 27° N 04:23:14 10° ENE
Meteor 2-2 Rocket 4.2 04:15:58 10° NNW 04:21:30 57° W 04:26:58 10° S
COSMO-SKYMED 1 2.6 04:17:51 10° SSE 04:22:11 80° ENE 04:26:33 10° N
Gbstr 26 Del rocket 2.5 04:21:05 40° WSW 04:22:21 77° NW 04:26:05 10° NE
Cosmos 2369 4.4 04:22:39 30° W 04:23:48 32° WSW 04:28:48 10° SSW
MOS 1-B 4.4 04:21:36 10° NNE 04:27:27 86° ESE 04:33:14 10° SSW
Meteor PRIRODA 3.7 04:24:19 10° N 04:27:54 52° WNW 04:31:28 10° SSW
APEX 4.1 04:28:36 27° SW 04:28:36 27° SW 04:31:18 10° S
Meteor 1-31 Rocket 3.7 04:25:31 10° N 04:28:09 29° NW 04:28:09 29° NW
SJ 16-02 1.2 04:26:01 10° SSW 04:30:24 72° WNW 04:34:48 10° NNE
COSMOS 2455 3.6 04:28:12 10° NNW 04:34:05 52° NE 04:39:56 10° SE
Cosmos 1484 Rocket 2.8 04:32:20 10° N 04:36:17 59° WNW 04:40:13 10° SSW
Cosmos 1869 3.5 04:33:50 15° NNW 04:36:51 43° W 04:40:34 10° SSW
CZ-4B R/B 3.7 04:33:25 10° NNE 04:38:46 62° ESE 04:44:09 10° S
Cosmos 2112 Rocket 4.2 04:34:37 11° NNW 04:39:30 50° WSW 04:44:38 10° S
COBE Rocket 4.3 04:34:53 10° S 04:39:49 46° W 04:44:44 10° NNW
Shenzhou-11 Module 1.7 04:39:55 42° WNW 04:40:39 69° N 04:43:21 10° E
Cosmos 2151 2.9 04:36:28 10° S 04:40:45 89° W 04:45:05 10° N
PAYLOAD B 4.2 04:36:42 10° NNE 04:42:15 89° ESE 04:47:45 10° SSW
Okean O Rocket 1.9 04:38:09 10° NNE 04:42:30 71° ESE 04:46:49 10° S
Cosmos 2278 4.5 04:41:05 19° WNW 04:44:08 30° WSW 04:49:01 10° SSW
ATLAS CENTAUR R/B 3.6 04:40:48 10° S 04:45:13 34° ESE 04:49:36 10° NE
Cosmos 1892 2.6 04:42:28 10° SSW 04:46:14 64° W 04:50:00 10° N
Cosmos 1697 Rocket 3.8 04:45:09 19° WNW 04:46:44 22° W 04:50:54 10° SSW
Cosmos 1680 Rocket 4.1 04:43:02 13° NW 04:47:15 36° WSW 04:52:03 10° SSW
H-2A R/B 4.4 04:46:07 10° NNW 04:47:32 14° NW 04:47:32 14° NW
OAO 3 Rocket 4.4 04:45:06 11° WSW 04:49:13 35° S 04:53:32 10° ESE
FENGYUN 3A 3.7 04:44:50 10° NNE 04:50:18 89° W 04:55:42 10° SSW
OAO 2 Rocket 4.3 04:46:18 13° WSW 04:50:27 38° S 04:55:06 10° ESE
Cosmos 1408 2.9 04:48:12 10° S 04:51:53 71° E 04:55:34 10° NNE
ALOS 2.2 04:47:14 10° N 04:51:56 77° WNW 04:56:35 10° SSW
Cosmos 1725 Rocket 4.5 04:47:21 10° S 04:53:29 66° E 04:59:44 10° NNE
Cosmos 1459 Rocket 3.9 04:48:22 10° SSW 04:54:29 68° W 05:00:44 10° N
Cosmos 2016 Rocket 4.0 04:51:54 10° S 04:58:07 89° ESE 05:04:28 10° N
SL-27 R/B 3.5 04:57:13 12° WSW 04:59:29 23° WNW 05:02:12 10° N
COSMOS 2487 3.7 04:58:47 10° S 05:02:06 45° ESE 05:05:25 10° NNE
METEOR-M 4.1 04:59:22 10° N 05:04:39 63° WNW 05:09:54 10° SSW
CZ-4B DEB 4.3 04:59:43 10° N 05:05:01 52° WNW 05:10:18 10° SW
BREEZE-M DEB 4.4 04:54:07 13° WNW 05:05:05 73° N 05:09:20 10° E
Cosmos 158 Rocket 4.2 05:01:18 10° NNW 05:05:58 42° WSW 05:10:32 10° S
USA 116 3.5 05:03:06 10° S 05:06:06 43° W 05:09:17 10° NNW
STARLINK-80 3.6 05:02:24 10° WSW 05:06:09 52° NNW 05:09:55 10° NE
In-Cosmos 22 Rocket 4.5 05:03:17 10° SW 05:08:18 41° WNW 05:13:27 10° N
Cosmos 2082 Rocket 3.5 05:04:43 11° W 05:08:43 20° NW 05:12:52 10° N
Tsikada Rocket 4.4 05:02:21 10° N 05:08:46 71° E 05:15:05 10° SSE
Cosmos 1933 4.2 05:06:11 10° N 05:10:08 53° E 05:14:04 10° SSE
SKYMED 2 4.4 05:06:37 10° SSW 05:10:26 30° W 05:14:17 10° NW
NOSS 3-4 (A) 4.4 05:05:02 10° NNW 05:11:59 60° NE 05:19:35 10° SE
NOSS 3-4 (C) 4.4 05:05:08 10° NNW 05:12:05 59° NE 05:19:40 10° SE
Cosmos 2100 Rocket 4.3 05:07:43 10° SSW 05:13:36 44° WNW 05:19:28 10° N
H-2A R/B 4.1 05:10:10 10° NNE 05:13:44 43° E 05:17:16 10° S
Cosmos 1825 2.1 05:10:16 10° S 05:14:00 85° W 05:17:48 10° N
Helios 1A Rocket 3.2 05:13:04 10° N 05:16:59 43° WNW 05:20:51 10° SW
NOSS 3-3 (A) 4.4 05:13:34 10° WSW 05:19:09 40° NW 05:25:24 10° NNE
NOSS 3-3 (C) 4.4 05:13:40 10° WSW 05:19:15 41° NW 05:25:31 10° NNE
Cosmos 1515 Rocket 3.6 05:15:15 10° N 05:19:36 86° ENE 05:23:56 10° S
STARLINK-61 3.6 05:15:51 10° SW 05:19:52 83° SE 05:23:55 10° NE
STARLINK-72 4.5 05:16:06 10° SW 05:20:08 53° SE 05:24:11 10° ENE
STARLINK-48 3.7 05:16:33 10° WSW 05:20:21 51° NNW 05:24:10 10° NE
SL-08 R/B 4.4 05:15:51 10° SSW 05:21:57 71° W 05:28:04 10° N
Cosmos 1328 Rocket 3.7 05:17:47 10° NNW 05:22:01 53° W 05:26:12 10° S
Cosmos 1743 Rocket 3.8 05:17:41 10° S 05:22:01 77° E 05:26:21 10° N
STARLINK-59 4.3 05:19:26 10° SW 05:23:30 59° SE 05:27:35 10° ENE
STARLINK-57 4.2 05:21:05 10° SW 05:25:09 61° SE 05:29:15 10° ENE
Cosmos 1802 Rocket 4.3 05:19:29 10° SSW 05:25:40 48° WNW 05:31:52 10° N
STARLINK-53 4.1 05:23:54 10° SW 05:28:00 65° SE 05:32:07 10° ENE
STARLINK-28 4.1 05:24:26 10° SW 05:28:31 66° SE 05:32:38 10° ENE
Cosmos 1151 Rocket 3.3 05:25:26 10° NNW 05:29:39 47° W 05:33:49 10° SSW
STARLINK-75 3.8 05:26:02 10° SW 05:30:10 76° SE 05:34:19 10° NE
Meteor 2-3 Rocket 4.1 05:27:10 10° S 05:32:52 76° E 05:38:38 10° NNE
